| time (UTC) | temp C | wind direction | speed KPH | gust KPH | rain 1hr cm | rain 24hr cm | rain mn cm | humidity % | barometer mb |
| 20260504034143 | 20 | 111 | 0.0 | 0.0 | 0.00 | 0.00 | 0.00 | 86 | 1016.5 |
| 20260504032657 | 20 | 111 | 1.6 | 4.8 | 0.00 | 0.00 | 0.00 | 85 | 1016.3 |
| 20260504031131 | 20 | 103 | 1.6 | 3.2 | 0.00 | 0.00 | 0.00 | 85 | 1016.3 |
| 20260504025623 | 20 | 103 | 3.2 | 4.8 | 0.00 | 0.00 | 0.00 | 84 | 1016.3 |
| 20260504024124 | 20 | 104 | 3.2 | 6.4 | 0.00 | 0.00 | 0.00 | 82 | 1016.3 |
| 20260504022622 | 21 | 104 | 1.6 | 6.4 | 0.00 | 0.00 | 0.00 | 82 | 1016.1 |
| 20260504021142 | 21 | 104 | 3.2 | 4.8 | 0.00 | 0.00 | 0.00 | 81 | 1016.0 |
| 20260504015620 | 21 | 92 | 1.6 | 4.8 | 0.00 | 0.00 | 0.00 | 79 | 1015.9 |
| 20260504014118 | 21 | 98 | 3.2 | 6.4 | 0.00 | 0.00 | 0.00 | 78 | 1016.0 |
| 20260504012642 | 22 | 87 | 4.8 | 9.7 | 0.00 | 0.00 | 0.00 | 77 | 1016.1 |
| 20260504011134 | 22 | 94 | 4.8 | 14.5 | 0.00 | 0.00 | 0.00 | 75 | 1016.0 |
| 20260504005622 | 22 | 80 | 9.7 | 16.1 | 0.00 | 0.00 | 0.00 | 74 | 1016.0 |
| 20260504004124 | 23 | 91 | 6.4 | 19.3 | 0.00 | 0.00 | 0.00 | 72 | 1015.8 |
| 20260504002645 | 23 | 96 | 8.0 | 20.9 | 0.00 | 0.00 | 0.00 | 71 | 1015.5 |
| 20260504001143 | 23 | 82 | 9.7 | 16.1 | 0.00 | 0.00 | 0.00 | 70 | 1015.5 |
| 20260503235624 | 24 | 88 | 4.8 | 20.9 | 0.00 | 0.00 | 0.00 | 68 | 1015.6 |
| 20260503234121 | 25 | 94 | 9.7 | 19.3 | 0.00 | 0.00 | 0.00 | 67 | 1015.6 |
| 20260503232640 | 25 | 70 | 11.3 | 20.9 | 0.00 | 0.00 | 0.00 | 66 | 1015.7 |
| 20260503231147 | 25 | 69 | 9.7 | 20.9 | 0.00 | 0.00 | 0.00 | 65 | 1015.9 |
| 20260503225626 | 25 | 63 | 12.9 | 20.9 | 0.00 | 0.00 | 0.00 | 64 | 1016.0 |
| 20260503224126 | 25 | 86 | 9.7 | 22.5 | 0.00 | 0.00 | 0.00 | 65 | 1016.1 |
| 20260503222650 | 25 | 117 | 6.4 | 22.5 | 0.00 | 0.00 | 0.00 | 64 | 1016.2 |
| 20260503221128 | 26 | 159 | 6.4 | 17.7 | 0.00 | 0.00 | 0.00 | 62 | 1016.4 |
| 20260503215631 | 26 | 83 | 6.4 | 17.7 | 0.00 | 0.00 | 0.00 | 60 | 1016.8 |
| 20260503214128 | 26 | 57 | 9.7 | 22.5 | 0.00 | 0.00 | 0.00 | 60 | 1016.7 |
| 20260503212651 | 26 | 107 | 11.3 | 22.5 | 0.00 | 0.00 | 0.00 | 60 | 1016.7 |
| 20260503211125 | 26 | 101 | 8.0 | 19.3 | 0.00 | 0.00 | 0.00 | 58 | 1016.8 |
| 20260503205627 | 26 | 94 | 11.3 | 22.5 | 0.00 | 0.00 | 0.00 | 58 | 1017.2 |
| 20260503204125 | 26 | 63 | 4.8 | 16.1 | 0.00 | 0.00 | 0.00 | 60 | 1017.5 |
| 20260503202625 | 26 | 76 | 6.4 | 17.7 | 0.00 | 0.00 | 0.00 | 58 | 1017.9 |
| 20260503201121 | 27 | 110 | 11.3 | 24.1 | 0.00 | 0.00 | 0.00 | 59 | 1018.2 |
| 20260503195617 | 27 | 114 | 12.9 | 22.5 | 0.00 | 0.00 | 0.00 | 57 | 1018.4 |
| 20260503194117 | 26 | 97 | 12.9 | 22.5 | 0.00 | 0.00 | 0.00 | 58 | 1018.5 |
| 20260503192619 | 26 | 26 | 8.0 | 22.5 | 0.00 | 0.00 | 0.00 | 59 | 1018.6 |
| 20260503191137 | 26 | 80 | 11.3 | 22.5 | 0.00 | 0.00 | 0.00 | 58 | 1018.7 |
| 20260503185621 | 26 | 90 | 1.6 | 20.9 | 0.00 | 0.00 | 0.00 | 62 | 1019.1 |
| 20260503184137 | 27 | 104 | 4.8 | 20.9 | 0.00 | 0.00 | 0.00 | 59 | 1019.2 |
| 20260503182619 | 26 | 72 | 6.4 | 16.1 | 0.00 | 0.00 | 0.00 | 61 | 1019.3 |
| 20260503181121 | 26 | 113 | 8.0 | 20.9 | 0.00 | 0.00 | 0.00 | 60 | 1019.6 |
| 20260503175618 | 26 | 82 | 8.0 | 16.1 | 0.00 | 0.00 | 0.00 | 59 | 1020.0 |
| 20260503174158 | 27 | 59 | 8.0 | 24.1 | 0.00 | 0.00 | 0.00 | 59 | 1019.9 |
| 20260503171141 | 26 | 115 | 11.3 | 22.5 | 0.00 | 0.00 | 0.00 | 61 | 1020.3 |
| 20260503131118 | 18 | 310 | 1.6 | 4.8 | 0.00 | 0.00 | 0.00 | 85 | 1019.5 |
| 20260503081119 | 17 | 300 | 1.6 | 4.8 | 0.00 | 0.00 | 0.00 | 87 | 1019.0 |
| 20260503072633 | 17 | 301 | 1.6 | 3.2 | 0.00 | 0.00 | 0.00 | 87 | 1019.1 |
| 20260503071123 | 17 | 301 | 1.6 | 4.8 | 0.00 | 0.00 | 0.00 | 87 | 1019.1 |
| 20260503054123 | 18 | 296 | 1.6 | 4.8 | 0.00 | 0.00 | 0.00 | 84 | 1019.9 |
| 20260503052701 | 18 | 296 | 1.6 | 4.8 | 0.00 | 0.00 | 0.00 | 84 | 1019.9 |
| 20260503051127 | 18 | 297 | 1.6 | 8.0 | 0.00 | 0.00 | 0.00 | 84 | 1019.8 |
| 20260503045645 | 17 | 290 | 1.6 | 4.8 | 0.00 | 0.00 | 0.00 | 84 | 1019.7 |
| 20260503044127 | 18 | 290 | 0.0 | 4.8 | 0.00 | 0.00 | 0.00 | 83 | 1019.4 |
| 20260503042644 | 18 | 290 | 0.0 | 3.2 | 0.00 | 0.00 | 0.00 | 82 | 1019.5 |
| 20260503041133 | 18 | 290 | 3.2 | 6.4 | 0.00 | 0.00 | 0.00 | 81 | 1019.6 |